Flag for Brazil Weather past 2 weeks in Rio de Janeiro, Rio de Janeiro, Brazil

Now
79 °F

Clear.


Feels Like: 82 °F
Forecast: 70 / 85 °F
Wind: 3 mph from South

Location: Rio De Janeiro Airport

Current Time: Feb 27, 2015 at 9:52:06 PM

Latest Report: Feb 27, 2015 at 9:00 PM


Visibility: 10 mi

Pressure: 29.80 "Hg

Humidity: 89%

Dew point: 75 °F

Location of Rio de JaneiroLocation

Historic Weather in Rio de Janeiro — Graph

°F

Rio de Janeiro temperature yesterday

Maximum temperature yesterday: 91 °F (at 11:00 AM)
Minimum temperature yesterday: 79 °F (at 6:00 AM)
Average temperature yesterday: 85 °F

Past Weeks' High & Low Weather Summary

 TemperatureHumidityPressure
High102 °F (Feb 20, 1:00 PM)94% (Feb 15, 11:00 PM)30.07 "Hg (Feb 15, 11:00 PM)
Low73 °F (Feb 15, 9:00 PM)35% (Feb 20, 1:00 PM)29.74 "Hg (Feb 15, 5:00 PM)
Average86 °F70%29.90 "Hg
* Reported Feb 12 9:00 PM — Feb 27 8:00 PM, Rio de Janeiro, Weather by CustomWeather, © 2015

Note: Actual official high and low records may vary slightly from our data, if they occured in-between our weather recording intervals... More about our weather records

Advertising

Rio de Janeiro weather history for previous 24 hours

 ConditionsComfort  
Time TempWeatherWind HumidityBarometerVisibility
8:00 PM
Fri, Feb 27
79 °FClear.7 mph89%29.80 "Hg10 mi
7:00 PM81 °FClear.10 mph79%29.77 "Hg10 mi
6:00 PM82 °FPassing clouds.12 mph79%29.74 "HgN/A
5:00 PM84 °FPassing clouds.17 mph70%29.74 "HgN/A
4:00 PM86 °FPassing clouds.15 mph66%29.74 "HgN/A
3:00 PM88 °FPassing clouds.14 mph55%29.74 "HgN/A
2:00 PM90 °FPassing clouds.15 mph63%29.74 "HgN/A
1:00 PM93 °FPassing clouds.12 mph53%29.77 "HgN/A
12:00 PM95 °FPassing clouds.5 mph50%29.80 "HgN/A
11:00 AM91 °FSunny.7 mph59%29.80 "Hg10 mi
10:00 AM90 °FSunny.7 mph59%29.83 "Hg10 mi
9:00 AM88 °FSunny.7 mph62%29.83 "Hg10 mi
8:00 AM84 °FSunny.5 mph70%29.83 "Hg10 mi
7:00 AM81 °FSunny.8 mph79%29.83 "Hg10 mi
6:00 AM77 °FSunny.7 mph89%29.80 "Hg10 mi
11:00 PM
Thu, Feb 26
79 °FClear.6 mph84%29.86 "Hg10 mi
10:00 PM81 °FClear.1 mph79%29.86 "Hg10 mi
9:00 PM81 °FClear.2 mph74%29.83 "Hg10 mi
Weather by CustomWeather, © 2015

See weather overviewHow to use our weather pages